Location: Alpha Ridge Park
(39.3209°N, 76.9128°W)
Time: 07:17:42
(UTC-04:00)

AO-92 - Pass Details

Date: 01 July 2022
Orbit: 469 x 481 km, 97.4° (Epoch: 09 August)

Event Time Altitude Azimuth Distance (km) Brightness Sun altitude
Exits shadow 23:59:43 21° 278° (W) 1,109 ? -25.4°
Drops below altitude 10° 00:02:03 10° 318° (NW) 1,660 ? -25.5°
Sets 00:04:28 0° 334° (NNW) 2,548 ? -25.6°
